Total_Precipitation_Accumulation
0.28 0.23 0.21 0.21 0.21 0.22 0.29 0.36 0.50 0.55 0.54 0.55 0.61 0.65 0.66 0.69 0.67 0.59 0.54 0.46 0.45 0.45 0.45 0.51 0.52 0.52 0.51 0.49 0.53 0.56 0.57 0.58 0.68 0.72 0.72 0.70 0.70 0.67 0.64 0.65 0.65 0.64 0.61 0.63
0.23 0.19 0.19 0.16 0.13 0.18 0.22 0.27 0.36 0.36 0.36 0.32 0.31 0.29 0.29 0.31 0.36 0.36 0.34 0.30 0.33 0.37 0.41 0.48 0.49 0.48 0.50 0.48 0.45 0.45 0.46 0.49 0.58 0.66 0.68 0.71 0.68 0.64 0.61 0.61 0.62 0.61 0.59 0.62
0.24 0.17 0.22 0.21 0.13 0.14 0.19 0.19 0.23 0.29 0.32 0.31 0.25 0.23 0.22 0.20 0.21 0.22 0.24 0.25 0.28 0.32 0.37 0.43 0.43 0.43 0.44 0.45 0.43 0.42 0.44 0.48 0.54 0.57 0.55 0.58 0.60 0.55 0.53 0.57 0.59 0.59 0.60 0.60
0.36 0.31 0.35 0.19 0.10 0.09 0.11 0.13 0.17 0.20 0.21 0.23 0.21 0.22 0.20 0.18 0.18 0.20 0.21 0.22 0.26 0.29 0.32 0.40 0.41 0.41 0.41 0.41 0.40 0.39 0.39 0.42 0.49 0.51 0.51 0.50 0.52 0.49 0.49 0.53 0.59 0.59 0.68 0.66
0.51 0.41 0.23 0.15 0.11 0.10 0.10 0.13 0.15 0.14 0.13 0.14 0.14 0.19 0.19 0.15 0.15 0.16 0.16 0.17 0.21 0.26 0.34 0.39 0.42 0.45 0.47 0.43 0.41 0.41 0.41 0.40 0.41 0.44 0.47 0.47 0.43 0.43 0.43 0.49 0.52 0.52 0.56 0.61
0.60 0.56 0.35 0.17 0.09 0.10 0.13 0.21 0.19 0.16 0.14 0.13 0.15 0.22 0.21 0.16 0.13 0.13 0.14 0.15 0.18 0.23 0.30 0.37 0.43 0.46 0.50 0.51 0.44 0.40 0.41 0.42 0.44 0.44 0.43 0.44 0.43 0.42 0.43 0.49 0.53 0.55 0.55 0.52
0.56 0.55 0.29 0.12 0.09 0.13 0.27 0.29 0.19 0.17 0.15 0.15 0.16 0.17 0.16 0.12 0.11 0.13 0.14 0.15 0.16 0.22 0.29 0.35 0.42 0.45 0.52 0.54 0.43 0.41 0.47 0.50 0.50 0.46 0.46 0.51 0.53 0.51 0.50 0.50 0.53 0.55 0.54 0.52
0.54 0.59 0.37 0.14 0.16 0.25 0.30 0.21 0.16 0.15 0.15 0.14 0.13 0.13 0.12 0.13 0.12 0.13 0.14 0.16 0.16 0.18 0.24 0.29 0.36 0.42 0.47 0.50 0.49 0.49 0.50 0.54 0.54 0.53 0.53 0.57 0.62 0.62 0.62 0.61 0.61 0.62 0.63 0.61
0.51 0.41 0.24 0.18 0.23 0.25 0.24 0.22 0.17 0.16 0.14 0.13 0.12 0.12 0.11 0.12 0.12 0.14 0.15 0.17 0.19 0.21 0.24 0.27 0.34 0.38 0.42 0.47 0.52 0.51 0.51 0.54 0.56 0.57 0.57 0.56 0.60 0.64 0.67 0.66 0.63 0.64 0.63 0.63
0.48 0.30 0.23 0.23 0.22 0.24 0.22 0.19 0.16 0.14 0.14 0.14 0.13 0.14 0.14 0.13 0.12 0.14 0.16 0.18 0.22 0.27 0.28 0.29 0.35 0.40 0.50 0.52 0.51 0.54 0.56 0.57 0.57 0.57 0.57 0.57 0.58 0.59 0.60 0.61 0.59 0.60 0.61 0.60
0.50 0.35 0.31 0.29 0.26 0.25 0.23 0.18 0.14 0.12 0.12 0.14 0.15 0.15 0.16 0.16 0.14 0.14 0.16 0.18 0.22 0.28 0.32 0.34 0.38 0.42 0.51 0.52 0.52 0.56 0.61 0.61 0.58 0.57 0.57 0.57 0.55 0.55 0.56 0.55 0.61 0.65 0.66 0.67
0.59 0.40 0.39 0.34 0.25 0.22 0.23 0.20 0.16 0.12 0.12 0.12 0.14 0.14 0.16 0.15 0.14 0.13 0.13 0.16 0.20 0.24 0.27 0.30 0.35 0.38 0.44 0.48 0.49 0.53 0.58 0.58 0.57 0.60 0.59 0.58 0.57 0.59 0.64 0.64 0.70 0.66 0.66 0.65
0.51 0.39 0.32 0.27 0.24 0.26 0.26 0.24 0.19 0.14 0.13 0.12 0.13 0.14 0.17 0.16 0.14 0.14 0.15 0.17 0.20 0.22 0.23 0.28 0.32 0.36 0.40 0.45 0.49 0.52 0.55 0.53 0.53 0.56 0.58 0.58 0.59 0.60 0.63 0.62 0.61 0.60 0.57 0.57
0.34 0.36 0.34 0.28 0.29 0.28 0.26 0.23 0.17 0.14 0.13 0.14 0.15 0.15 0.17 0.17 0.17 0.17 0.18 0.19 0.20 0.23 0.24 0.25 0.29 0.34 0.39 0.42 0.44 0.52 0.60 0.65 0.59 0.55 0.57 0.59 0.60 0.60 0.60 0.63 0.65 0.63 0.57 0.54
0.24 0.28 0.30 0.27 0.24 0.22 0.22 0.20 0.17 0.14 0.12 0.14 0.16 0.17 0.20 0.21 0.22 0.22 0.20 0.20 0.21 0.22 0.23 0.23 0.26 0.30 0.34 0.38 0.42 0.46 0.53 0.58 0.60 0.59 0.58 0.57 0.57 0.55 0.55 0.55 0.58 0.63 0.62 0.60
0.24 0.22 0.23 0.27 0.24 0.20 0.20 0.21 0.22 0.19 0.15 0.15 0.18 0.19 0.24 0.25 0.25 0.25 0.24 0.24 0.24 0.24 0.24 0.26 0.27 0.29 0.32 0.36 0.42 0.44 0.48 0.57 0.61 0.58 0.57 0.59 0.57 0.57 0.59 0.58 0.58 0.60 0.58 0.61
0.28 0.27 0.28 0.33 0.29 0.23 0.24 0.26 0.28 0.23 0.19 0.17 0.19 0.21 0.26 0.32 0.32 0.29 0.27 0.27 0.26 0.26 0.25 0.27 0.30 0.33 0.35 0.40 0.47 0.49 0.49 0.52 0.60 0.58 0.55 0.58 0.63 0.63 0.66 0.66 0.64 0.64 0.64 0.69
0.30 0.29 0.31 0.34 0.33 0.36 0.38 0.35 0.33 0.27 0.24 0.24 0.23 0.23 0.27 0.31 0.37 0.36 0.34 0.32 0.31 0.30 0.30 0.29 0.31 0.36 0.37 0.42 0.48 0.53 0.56 0.53 0.53 0.54 0.57 0.58 0.62 0.63 0.65 0.66 0.65 0.66 0.68 0.71
0.22 0.24 0.28 0.30 0.35 0.42 0.41 0.40 0.38 0.31 0.26 0.28 0.29 0.28 0.28 0.31 0.35 0.34 0.32 0.34 0.34 0.34 0.33 0.32 0.38 0.37 0.38 0.45 0.51 0.53 0.58 0.60 0.58 0.56 0.55 0.60 0.62 0.60 0.63 0.66 0.67 0.68 0.68 0.68
0.23 0.25 0.31 0.34 0.35 0.36 0.40 0.41 0.37 0.32 0.27 0.29 0.32 0.30 0.29 0.30 0.31 0.30 0.30 0.31 0.32 0.34 0.34 0.37 0.35 0.34 0.40 0.44 0.50 0.46 0.54 0.59 0.57 0.54 0.55 0.57 0.57 0.60 0.62 0.62 0.62 0.66 0.67 0.66
0.29 0.32 0.34 0.37 0.37 0.35 0.42 0.45 0.40 0.36 0.32 0.32 0.33 0.34 0.32 0.32 0.30 0.32 0.34 0.31 0.29 0.29 0.33 0.43 0.39 0.37 0.43 0.50 0.52 0.46 0.49 0.54 0.56 0.56 0.58 0.59 0.61 0.64 0.64 0.64 0.62 0.62 0.63 0.63
0.35 0.36 0.38 0.41 0.40 0.39 0.42 0.50 0.50 0.43 0.38 0.38 0.36 0.37 0.38 0.37 0.35 0.34 0.34 0.36 0.36 0.39 0.38 0.38 0.40 0.49 0.60 0.60 0.49 0.47 0.48 0.49 0.53 0.56 0.58 0.58 0.60 0.65 0.66 0.67 0.66 0.64 0.65 0.68
0.39 0.41 0.42 0.43 0.46 0.46 0.44 0.49 0.51 0.44 0.42 0.44 0.44 0.44 0.44 0.46 0.46 0.45 0.41 0.38 0.38 0.45 0.42 0.42 0.51 0.65 0.72 0.60 0.53 0.52 0.50 0.50 0.50 0.52 0.52 0.54 0.58 0.63 0.66 0.65 0.67 0.67 0.68 0.70
0.41 0.44 0.45 0.44 0.46 0.48 0.51 0.54 0.53 0.51 0.50 0.51 0.50 0.49 0.50 0.54 0.55 0.51 0.50 0.53 0.55 0.55 0.47 0.49 0.59 0.69 0.71 0.59 0.57 0.56 0.53 0.51 0.52 0.53 0.52 0.53 0.57 0.61 0.62 0.60 0.61 0.64 0.65 0.69
0.46 0.47 0.47 0.49 0.52 0.56 0.61 0.61 0.59 0.57 0.57 0.57 0.56 0.54 0.54 0.60 0.68 0.64 0.58 0.56 0.61 0.61 0.53 0.56 0.65 0.67 0.58 0.56 0.59 0.59 0.60 0.62 0.65 0.64 0.60 0.60 0.60 0.59 0.59 0.59 0.60 0.61 0.63 0.69
0.49 0.52 0.55 0.58 0.60 0.62 0.66 0.68 0.70 0.69 0.68 0.69 0.66 0.62 0.60 0.62 0.67 0.68 0.68 0.66 0.66 0.69 0.63 0.62 0.63 0.63 0.59 0.62 0.66 0.66 0.64 0.69 0.74 0.73 0.68 0.68 0.65 0.66 0.68 0.68 0.68 0.68 0.69 0.74
0.46 0.50 0.51 0.53 0.54 0.57 0.62 0.68 0.76 0.79 0.80 0.83 0.80 0.73 0.72 0.75 0.75 0.72 0.71 0.75 0.77 0.76 0.75 0.74 0.72 0.71 0.71 0.72 0.74 0.75 0.72 0.71 0.71 0.71 0.72 0.74 0.75 0.75 0.75 0.77 0.79 0.80 0.80 0.82